Lovelock, NV

2:24 AM PST on February 21, 2017 (GMT -0800)
Derby

Weather History for KLOL - November, 2013

Change the Weather History Date:

Sunday, November 10, 2013

  Actual Average Record
Temperature  
Mean Temperature 42 °F -  
Max Temperature 64 °F 56 °F 70 °F (1955)
Min Temperature 21 °F 25 °F 8 °F (1992)
Degree Days  
Heating Degree Days 22    
Moisture  
Dew Point 23 °F    
Average Humidity 56    
Maximum Humidity 89    
Minimum Humidity 18    
Precipitation  
Precipitation 0.00 in - - ()
Sea Level Pressure  
Sea Level Pressure 30.21 in    
Wind  
Wind Speed 3 mph (SE)    
Max Wind Speed 7 mph    
Max Gust Speed -    
Visibility 10 miles    
Events Snow    
Averages and records for this station are not official NWS values.
T = Trace of Precipitation, MM = Missing Value Source: NWS Daily Summary

Daily Weather History Graph

Daily Weather History Graph

Search for Another Location

Airport or City:

Trip Planner

Search our weather history database for the weather conditions in past years. The results will help you decide how hot, cold, wet, or windy it might be!

Date:

Astronomy

Nov. 10, 2013 Rise Set
Actual Time 6:34 AM PST 4:41 PM PST
Civil Twilight 6:05 AM PST 5:10 PM PST
Nautical Twilight 5:32 AM PST 5:43 PM PST
Astronomical Twilight 5:01 AM PST 6:14 PM PST
Moon 12:50 PM PST (11/10) No Moon Set
Length of Visible Light 11h 05m
Length of Day
10h 07m
First Quarter, 56% of the Moon is Illuminated
Nov 10
First Quarter
Nov 17
Full
Nov 25
Last Quarter
Dec 2
New
Dec 9
First Quarter

Hourly Weather History & Observations

Time (PST) Temp. Windchill Dew Point Humidity Pressure Visibility Wind Dir Wind Speed Gust Speed Precip Events Conditions
12:53 AM 34.0 °F 28.8 °F 25.0 °F 70% 30.15 in 10.0 mi East 5.8 mph - 0.00 in Snow Light Snow
1:53 AM 30.0 °F 26.5 °F 25.0 °F 82% 30.17 in 10.0 mi SSW 3.5 mph - 0.00 in   Clear
2:53 AM 27.0 °F 23.0 °F 21.0 °F 78% 30.18 in 10.0 mi South 3.5 mph - N/A   Clear
3:53 AM 26.1 °F 20.5 °F 21.9 °F 84% 30.18 in 10.0 mi East 4.6 mph - N/A   Clear
4:53 AM 27.0 °F - 23.0 °F 85% 30.20 in 10.0 mi Calm Calm - N/A   Clear
5:53 AM 21.9 °F - 19.0 °F 89% 30.25 in 10.0 mi Calm Calm - N/A   Clear
6:53 AM 21.0 °F - 16.0 °F 81% 30.28 in 10.0 mi Calm Calm - N/A   Clear
7:53 AM 33.1 °F 30.0 °F 26.1 °F 75% 30.28 in 10.0 mi SE 3.5 mph - N/A   Clear
8:53 AM 39.9 °F 36.7 °F 28.9 °F 65% 30.27 in 10.0 mi East 4.6 mph - N/A   Clear
9:53 AM 46.0 °F - 32.0 °F 58% 30.26 in 10.0 mi Calm Calm - N/A   Clear
10:53 AM 53.1 °F - 33.1 °F 47% 30.24 in 10.0 mi Calm Calm - N/A   Clear
11:53 AM 59.0 °F - 28.9 °F 32% 30.19 in 10.0 mi Variable 3.5 mph - N/A   Clear
12:53 PM 61.0 °F - 21.0 °F 21% 30.16 in 10.0 mi WSW 6.9 mph - N/A   Clear
1:53 PM 63.0 °F - 19.9 °F 19% 30.14 in 10.0 mi Variable 3.5 mph - N/A   Clear
2:53 PM 64.0 °F - 21.9 °F 20% 30.14 in 10.0 mi WNW 4.6 mph - N/A   Clear
3:53 PM 64.0 °F - 19.9 °F 18% 30.14 in 10.0 mi Calm Calm - N/A   Clear
4:53 PM 55.0 °F - 24.1 °F 30% 30.17 in 10.0 mi NE 3.5 mph - N/A   Clear
5:53 PM 43.0 °F 39.5 °F 23.0 °F 45% 30.22 in 10.0 mi NW 5.8 mph - N/A   Clear
6:53 PM 43.0 °F - 21.0 °F 42% 30.23 in 10.0 mi Calm Calm - N/A   Clear
7:53 PM 37.0 °F 31.6 °F 21.0 °F 52% 30.23 in 10.0 mi ESE 6.9 mph - N/A   Clear
8:53 PM 35.1 °F - 21.9 °F 59% 30.23 in 9.0 mi Calm Calm - 0.00 in   Clear
9:53 PM 32.0 °F 28.7 °F 21.0 °F 64% 30.23 in 10.0 mi SSE 3.5 mph - N/A   Clear
10:53 PM 30.0 °F - 19.9 °F 66% 30.22 in 10.0 mi Calm Calm - N/A   Clear
11:53 PM 28.9 °F - 19.0 °F 67% 30.22 in 10.0 mi Calm Calm - N/A   Clear